Location: Feydey
(46.3431°N, 7.0106°E)
Time: 09:25:52
(UTC+00:00)

Resurs 01 Rocket - Pass Details

Date: 20 June 2021
Orbit: 635 x 643 km, 97.9° (Epoch: 04 August)

Event Time Altitude Azimuth Distance (km) Brightness Sun altitude
Exits shadow 20:59:45 - 199° (SSW) 2,791 4.6 -12.0°
Reaches altitude 10° 21:01:57 10° 212° (SSW) 2,017 4.0 -12.2°
Maximum altitude 21:05:29 24° 266° (W) 1,332 3.6 -12.6°
Drops below altitude 10° 21:09:04 10° 320° (NW) 2,031 5.7 -12.9°
Sets 21:11:40 0° 335° (NNW) 2,946 7.0 -13.2°
